{"data":{"norad_id":58882,"intl_designator":"2024-020G","name":"STARLINK-31323","alt_names":[],"object_type":"PAYLOAD","status":"ACTIVE","operator":null,"country":"US","launch_date":"2024-01-29","launch_site_code":"AFWTR","launch_vehicle":null,"mission":null,"orbit_class":"UNKNOWN","rcs_meters":null,"size_class":null,"mass_kg":null,"dimensions":null,"purposes":["comms"],"wikipedia_slug":null,"has_3d_model":false,"image_url":null,"decayed_at":null,"tle_current":{"epoch":"2026-09-20T05:59:37.229280Z","epoch_age_seconds":174096,"freshness":"STALE","line1":"1 58882U 24020G   26263.24973645  .00000760  00000+0  33616-4 0  9993","line2":"2 58882  53.1593 134.8452 0001074  94.7738 265.3387 15.34392397147918","mean_motion":15.34392397,"eccentricity":0.0001074,"inclination_deg":53.1593,"raan_deg":134.8452,"arg_perigee_deg":94.7738,"mean_anomaly_deg":265.3387,"bstar":3.3616e-5,"rev_number":14791,"period_min":93.848223102216,"perigee_km":461.99112934987,"apogee_km":463.46054668748,"semimajor_km":6840.8628380187,"source":"CELESTRAK","updated_at":"2026-09-21T09:00:33.992981Z"}}}